Palmer, AK

2:02 PM AKST on February 20, 2017 (GMT -0900)
Palmer Municipal

Weather History for PAAQ - January, 2013

Change the Weather History Date:

Monday, January 7, 2013

  Actual Average Record
Temperature  
Mean Temperature 32 °F -  
Max Temperature 37 °F 21 °F 41 °F (1953)
Min Temperature 28 °F 5 °F -24 °F (1952)
Degree Days  
Heating Degree Days 32    
Moisture  
Dew Point 15 °F    
Average Humidity 53    
Maximum Humidity 64    
Minimum Humidity 43    
Precipitation  
Precipitation 0.00 in - - ()
Sea Level Pressure  
Sea Level Pressure 29.19 in    
Wind  
Wind Speed 13 mph (North)    
Max Wind Speed 20 mph    
Max Gust Speed 30 mph    
Visibility 10 miles    
Events      
Averages and records for this station are not official NWS values.
T = Trace of Precipitation, MM = Missing Value Source: NWS Daily Summary

Daily Weather History Graph

Daily Weather History Graph

Search for Another Location

Airport or City:

Trip Planner

Search our weather history database for the weather conditions in past years. The results will help you decide how hot, cold, wet, or windy it might be!

Date:

Astronomy

Jan. 07, 2013 Rise Set
Actual Time 10:08 AM AKST 3:57 PM AKST
Civil Twilight 9:08 AM AKST 4:58 PM AKST
Nautical Twilight 8:09 AM AKST 5:57 PM AKST
Astronomical Twilight 7:15 AM AKST 6:50 PM AKST
Moon 5:22 AM AKST (1/7) 12:33 PM AKST (1/7)
Length of Visible Light 7h 49m
Length of Day
5h 49m
Waning Crescent, 21% of the Moon is Illuminated
Jan 7
Waning Crescent
Jan 11
New
Jan 18
First Quarter
Jan 26
Full
Feb 3
Last Quarter

Hourly Weather History & Observations

Time (AKST) Temp. Windchill Dew Point Humidity Pressure Visibility Wind Dir Wind Speed Gust Speed Precip Events Conditions
12:53 AM 30.9 °F 18.7 °F 19.9 °F 64% 29.08 in 10.0 mi NNE 19.6 mph 29.9 mph N/A   Clear
1:53 AM 33.1 °F 22.6 °F 18.0 °F 54% 29.08 in 10.0 mi NNE 16.1 mph 23.0 mph N/A   Clear
2:53 AM 37.9 °F 30.0 °F 17.1 °F 43% 29.09 in 10.0 mi NNE 12.7 mph 23.0 mph N/A   Scattered Clouds
3:53 AM 33.1 °F 26.9 °F 17.1 °F 52% 29.09 in 10.0 mi Variable 6.9 mph - N/A   Clear
4:53 AM 32.0 °F 24.2 °F 17.1 °F 54% 29.08 in 10.0 mi North 9.2 mph - N/A   Clear
5:53 AM 28.0 °F 18.1 °F 16.0 °F 61% 29.09 in 10.0 mi NNW 11.5 mph - N/A   Clear
6:53 AM 28.9 °F 17.7 °F 16.0 °F 58% 29.09 in 10.0 mi North 15.0 mph - N/A   Clear
7:53 AM 28.0 °F 17.5 °F 15.1 °F 58% 29.10 in 10.0 mi North 12.7 mph 27.6 mph N/A   Mostly Cloudy
8:53 AM 28.0 °F 17.5 °F 14.0 °F 56% 29.12 in 10.0 mi NNW 12.7 mph 19.6 mph N/A   Mostly Cloudy
9:53 AM 28.9 °F 18.6 °F 14.0 °F 54% 29.15 in 10.0 mi North 12.7 mph - N/A   Scattered Clouds
10:53 AM 28.0 °F 18.1 °F 14.0 °F 56% 29.16 in 10.0 mi North 11.5 mph - N/A   Scattered Clouds
11:53 AM 28.9 °F 20.4 °F 14.0 °F 54% 29.17 in 10.0 mi North 9.2 mph - N/A   Scattered Clouds
12:53 PM 30.9 °F 20.7 °F 14.0 °F 50% 29.19 in 10.0 mi NNW 13.8 mph - N/A   Scattered Clouds
1:53 PM 32.0 °F 23.0 °F 14.0 °F 48% 29.19 in 10.0 mi North 11.5 mph - N/A   Scattered Clouds
2:53 PM 30.9 °F 22.8 °F 14.0 °F 50% 29.21 in 10.0 mi North 9.2 mph - N/A   Mostly Cloudy
3:53 PM 30.0 °F 21.1 °F 14.0 °F 51% 29.23 in 10.0 mi North 10.4 mph - N/A   Mostly Cloudy
4:53 PM 30.9 °F 23.5 °F 12.9 °F 47% 29.24 in 10.0 mi North 8.1 mph - N/A   Mostly Cloudy
5:53 PM 30.0 °F 21.1 °F 14.0 °F 51% 29.26 in 10.0 mi North 10.4 mph - N/A   Mostly Cloudy
6:53 PM 30.0 °F 23.2 °F 12.9 °F 49% 29.29 in 10.0 mi North 6.9 mph - N/A   Partly Cloudy
7:53 PM 30.0 °F 20.5 °F 14.0 °F 51% 29.30 in 10.0 mi North 11.5 mph - N/A   Overcast
8:53 PM 28.0 °F 17.0 °F 15.1 °F 58% 29.31 in 10.0 mi NNW 13.8 mph - N/A   Overcast
9:53 PM 28.9 °F 19.2 °F 10.9 °F 47% 29.33 in 10.0 mi NNW 11.5 mph - N/A   Clear
10:53 PM 28.0 °F 18.6 °F 14.0 °F 56% 29.35 in 10.0 mi NNW 10.4 mph - N/A   Clear
11:53 PM 28.0 °F 18.6 °F 14.0 °F 56% 29.38 in 10.0 mi NNW 10.4 mph - N/A   Clear